SIA611 RKSI-WSSS

Flight info

Callsign SIA611
Flight time N/A
Altitude 38000
Route BOPTA2H BOPTA Z51 BEDES Y711 MUGUS Y742 SALMI Q11 TITUS/N0488F400 Q11 TACLE Q12 KABAM N892 MIGUG/K0900F400 N892 MELAS/N0485F400 N892 MABAL MABAL2B
Aircraft A359/H-SDE1E2E3GHIJ1J2J3J5M1P2RWXYZ/LB1D1

Departure

Time 2026-05-05 02:58
Airport Incheon International Airport (RKSI)

Arrival

Time N/A
Airport Singapore Changi Airport (WSSS)
Time Latitude Longitude Altitude Speed Heading
2026-05-05 02:18 37.44959 126.44578 39 ft 0 kts 36°
2026-05-05 02:37 37.44956 126.44576 39 ft 3 kts 36°
2026-05-05 02:38 37.44934 126.44556 38 ft 4 kts 36°
2026-05-05 02:38 37.44914 126.44538 38 ft 2 kts 36°
2026-05-05 02:38 37.44896 126.44524 37 ft 4 kts 10°
2026-05-05 02:38 37.44873 126.44524 38 ft 4 kts 343°
2026-05-05 02:39 37.44848 126.44535 37 ft 4 kts 338°
2026-05-05 02:39 37.44843 126.44538 37 ft 0 kts 338°
2026-05-05 02:42 37.44879 126.44500 37 ft 13 kts 311°
2026-05-05 02:42 37.44932 126.44411 39 ft 12 kts 305°
2026-05-05 02:43 37.44982 126.44317 39 ft 14 kts 304°
2026-05-05 02:43 37.45047 126.44219 39 ft 15 kts 319°
2026-05-05 02:43 37.45091 126.44151 39 ft 9 kts 282°
2026-05-05 02:43 37.45071 126.44077 39 ft 10 kts 237°
2026-05-05 02:44 37.45045 126.43996 39 ft 10 kts 275°
2026-05-05 02:44 37.45090 126.43927 39 ft 11 kts 325°
2026-05-05 02:44 37.45160 126.43866 39 ft 13 kts 324°
2026-05-05 02:44 37.45238 126.43796 39 ft 15 kts 324°
2026-05-05 02:45 37.45328 126.43717 39 ft 16 kts 324°
2026-05-05 02:45 37.45425 126.43630 39 ft 18 kts 324°
2026-05-05 02:45 37.45532 126.43534 39 ft 19 kts 324°
2026-05-05 02:45 37.45647 126.43432 39 ft 21 kts 324°
2026-05-05 02:46 37.45748 126.43343 39 ft 15 kts 324°
2026-05-05 02:46 37.45838 126.43262 39 ft 17 kts 324°
2026-05-05 02:46 37.45939 126.43172 39 ft 18 kts 324°
2026-05-05 02:46 37.46048 126.43075 39 ft 20 kts 324°
2026-05-05 02:47 37.46165 126.42971 39 ft 21 kts 324°
2026-05-05 02:47 37.46289 126.42860 39 ft 22 kts 325°
2026-05-05 02:47 37.46417 126.42747 39 ft 19 kts 324°
2026-05-05 02:47 37.46520 126.42655 39 ft 19 kts 324°
2026-05-05 02:48 37.46630 126.42557 38 ft 20 kts 324°
2026-05-05 02:48 37.46747 126.42453 39 ft 21 kts 324°
2026-05-05 02:48 37.46870 126.42343 39 ft 23 kts 324°
2026-05-05 02:48 37.46987 126.42239 39 ft 20 kts 324°
2026-05-05 02:49 37.47103 126.42136 39 ft 21 kts 324°
2026-05-05 02:49 37.47225 126.42027 39 ft 22 kts 324°
2026-05-05 02:49 37.47307 126.41954 38 ft 7 kts 324°
2026-05-05 02:49 37.47355 126.41911 39 ft 9 kts 325°
2026-05-05 02:50 37.47399 126.41847 39 ft 10 kts 285°
2026-05-05 02:50 37.47377 126.41762 39 ft 11 kts 237°
2026-05-05 02:50 37.47348 126.41710 39 ft 5 kts 234°
2026-05-05 02:50 37.47345 126.41705 39 ft 0 kts 234°
2026-05-05 02:54 37.47344 126.41702 39 ft 3 kts 234°
2026-05-05 02:54 37.47303 126.41630 39 ft 11 kts 234°
2026-05-05 02:54 37.47258 126.41598 39 ft 7 kts 184°
2026-05-05 02:55 37.47209 126.41623 39 ft 8 kts 147°
2026-05-05 02:55 37.47182 126.41646 39 ft 0 kts 146°
2026-05-05 02:57 37.47175 126.41653 39 ft 12 kts 146°
2026-05-05 02:57 37.46910 126.41887 39 ft 79 kts 145°
2026-05-05 02:57 37.46296 126.42435 38 ft 136 kts 144°
2026-05-05 02:57 37.45404 126.43238 231 ft 168 kts 145°
2026-05-05 02:58 37.44469 126.44050 1092 ft 161 kts 150°
2026-05-05 02:58 37.43451 126.44786 1644 ft 180 kts 155°
2026-05-05 02:58 37.42301 126.45593 2127 ft 199 kts 154°
2026-05-05 02:58 37.41068 126.46509 2606 ft 211 kts 153°
2026-05-05 02:59 37.39764 126.47508 2975 ft 231 kts 152°
2026-05-05 02:59 37.38307 126.48498 3508 ft 240 kts 162°
2026-05-05 02:59 37.36710 126.49113 4203 ft 243 kts 168°
2026-05-05 02:59 37.35050 126.49653 4837 ft 250 kts 168°
2026-05-05 03:00 37.33924 126.50024 5264 ft 254 kts 168°
2026-05-05 03:00 37.31598 126.50803 6164 ft 263 kts 168°
2026-05-05 03:00 37.29814 126.51403 6834 ft 269 kts 168°
2026-05-05 03:00 37.28005 126.52079 7568 ft 274 kts 161°
2026-05-05 03:01 37.26859 126.52735 8104 ft 276 kts 155°
2026-05-05 03:01 37.25156 126.53891 8907 ft 279 kts 153°
2026-05-05 03:01 37.23451 126.55063 9727 ft 281 kts 153°
2026-05-05 03:01 37.21713 126.56248 10378 ft 290 kts 153°
2026-05-05 03:02 37.19883 126.57490 10726 ft 309 kts 153°
2026-05-05 03:02 37.17935 126.58809 11067 ft 326 kts 153°
2026-05-05 03:02 37.15885 126.60196 11418 ft 343 kts 153°
2026-05-05 03:02 37.13737 126.61620 11902 ft 353 kts 155°
2026-05-05 03:03 37.11385 126.62507 12504 ft 357 kts 174°
2026-05-05 03:03 37.08875 126.62578 13145 ft 362 kts 181°
2026-05-05 03:03 37.06335 126.62513 13783 ft 366 kts 180°
2026-05-05 03:03 37.03771 126.62455 14382 ft 371 kts 180°
2026-05-05 03:04 37.01176 126.62410 14950 ft 375 kts 180°
2026-05-05 03:04 36.98583 126.62370 15545 ft 379 kts 180°
2026-05-05 03:04 36.95933 126.62360 16181 ft 382 kts 179°
2026-05-05 03:04 36.93258 126.62395 16824 ft 386 kts 178°
2026-05-05 03:05 36.90561 126.62437 17464 ft 390 kts 178°
2026-05-05 03:05 36.87826 126.62476 18074 ft 394 kts 178°
2026-05-05 03:05 36.85062 126.62388 18654 ft 399 kts 182°
2026-05-05 03:05 36.82269 126.62192 19180 ft 404 kts 182°
2026-05-05 03:06 36.79457 126.62001 19753 ft 408 kts 182°
2026-05-05 03:07 36.67512 126.63407 22118 ft 423 kts 165°
2026-05-05 03:07 36.64664 126.64396 22666 ft 427 kts 164°
2026-05-05 03:07 36.61795 126.65429 23219 ft 430 kts 164°
2026-05-05 03:07 36.58900 126.66462 23750 ft 435 kts 165°
2026-05-05 03:08 36.56011 126.67474 24201 ft 439 kts 165°
2026-05-05 03:08 36.53060 126.68488 24680 ft 442 kts 165°
2026-05-05 03:08 36.50085 126.69492 25165 ft 445 kts 166°
2026-05-05 03:08 36.47082 126.70498 25642 ft 448 kts 166°
2026-05-05 03:09 36.44064 126.71506 26113 ft 451 kts 166°
2026-05-05 03:09 36.41013 126.72523 26597 ft 454 kts 166°
2026-05-05 03:09 36.37948 126.73545 27058 ft 457 kts 166°
2026-05-05 03:09 36.34868 126.74579 27527 ft 460 kts 166°
2026-05-05 03:10 36.31770 126.75620 27989 ft 463 kts 166°
2026-05-05 03:10 36.28646 126.76670 28456 ft 466 kts 166°
2026-05-05 03:10 36.25515 126.77726 28890 ft 469 kts 166°
2026-05-05 03:10 36.22355 126.78791 29322 ft 472 kts 167°
2026-05-05 03:11 36.19211 126.79847 29737 ft 474 kts 167°
2026-05-05 03:11 36.15976 126.80650 30142 ft 475 kts 175°
2026-05-05 03:11 36.12637 126.80869 30504 ft 474 kts 184°
2026-05-05 03:11 36.09337 126.80666 30861 ft 475 kts 187°
2026-05-05 03:12 36.06081 126.80350 31196 ft 476 kts 188°
2026-05-05 03:12 36.02784 126.79978 31528 ft 477 kts 188°
2026-05-05 03:12 35.99463 126.79585 31832 ft 479 kts 188°
2026-05-05 03:12 35.96126 126.79193 32145 ft 480 kts 188°
2026-05-05 03:13 35.92802 126.78813 32579 ft 479 kts 189°
2026-05-05 03:13 35.89480 126.78446 33011 ft 477 kts 189°
2026-05-05 03:13 35.86183 126.78093 33421 ft 476 kts 189°
2026-05-05 03:13 35.82927 126.77741 33800 ft 475 kts 189°
2026-05-05 03:14 35.79596 126.77378 34181 ft 474 kts 189°
2026-05-05 03:14 35.76352 126.77025 34495 ft 473 kts 189°
2026-05-05 03:14 35.73063 126.76668 34777 ft 473 kts 189°
2026-05-05 03:14 35.69790 126.76313 35069 ft 472 kts 189°
2026-05-05 03:15 35.66512 126.75959 35348 ft 472 kts 189°
2026-05-05 03:15 35.63241 126.75606 35616 ft 471 kts 189°
2026-05-05 03:15 35.61077 126.75373 35788 ft 471 kts 189°
2026-05-05 03:15 35.56750 126.74908 36125 ft 471 kts 190°
2026-05-05 03:16 35.53488 126.74557 36382 ft 470 kts 190°
2026-05-05 03:16 35.50224 126.74207 36620 ft 470 kts 190°
2026-05-05 03:16 35.46958 126.73864 36869 ft 470 kts 190°
2026-05-05 03:16 35.44798 126.73635 37036 ft 470 kts 190°
2026-05-05 03:17 35.40425 126.73165 37349 ft 470 kts 190°
2026-05-05 03:17 35.37203 126.72817 37564 ft 469 kts 190°
2026-05-05 03:17 35.33948 126.72466 37777 ft 469 kts 191°
2026-05-05 03:17 35.30675 126.72114 37972 ft 470 kts 191°
2026-05-05 03:18 35.27422 126.71766 38134 ft 471 kts 191°
2026-05-05 03:18 35.20842 126.71060 38155 ft 474 kts 191°
2026-05-05 03:19 35.11022 126.70023 38155 ft 473 kts 191°
2026-05-05 03:19 35.04472 126.69334 38159 ft 472 kts 191°
2026-05-05 03:20 34.99019 126.68751 38160 ft 472 kts 191°
2026-05-05 03:20 34.92478 126.68054 38158 ft 472 kts 191°
2026-05-05 03:21 34.85944 126.67362 38161 ft 471 kts 191°
2026-05-05 03:21 34.78301 126.66555 38158 ft 471 kts 191°
2026-05-05 03:22 34.72873 126.65984 38160 ft 471 kts 191°
2026-05-05 03:22 34.66341 126.65297 38161 ft 471 kts 191°
2026-05-05 03:23 34.59804 126.64609 38164 ft 470 kts 191°
2026-05-05 03:23 34.53280 126.63925 38169 ft 470 kts 191°
2026-05-05 03:24 34.46805 126.63247 38172 ft 470 kts 191°
2026-05-05 03:24 34.40287 126.62568 38173 ft 470 kts 191°
2026-05-05 03:25 34.33770 126.61893 38167 ft 469 kts 192°
2026-05-05 03:25 34.27264 126.61212 38171 ft 469 kts 192°
2026-05-05 03:26 34.20804 126.60547 38176 ft 468 kts 192°
2026-05-05 03:26 34.14302 126.59865 38175 ft 467 kts 192°
2026-05-05 03:27 34.07826 126.59185 38167 ft 467 kts 192°
2026-05-05 03:27 34.01387 126.58513 38174 ft 466 kts 192°
2026-05-05 03:28 33.94921 126.57842 38176 ft 466 kts 192°
2026-05-05 03:28 33.88460 126.57174 38172 ft 465 kts 192°
2026-05-05 03:29 33.82191 126.55818 38169 ft 452 kts 205°
2026-05-05 03:29 33.76252 126.53392 38175 ft 449 kts 206°
2026-05-05 03:30 33.70416 126.50829 38176 ft 448 kts 207°
2026-05-05 03:30 33.64563 126.48256 38179 ft 447 kts 207°
2026-05-05 03:31 33.58694 126.45705 38183 ft 447 kts 206°
2026-05-05 03:31 33.52835 126.43175 38183 ft 446 kts 206°
2026-05-05 03:32 33.47031 126.40675 38182 ft 446 kts 207°
2026-05-05 03:32 33.41190 126.38166 38180 ft 445 kts 206°
2026-05-05 03:33 33.35357 126.35661 38177 ft 445 kts 207°
2026-05-05 03:33 33.29531 126.33155 38175 ft 444 kts 207°
2026-05-05 03:34 33.23714 126.30659 38173 ft 444 kts 207°
2026-05-05 03:34 33.17935 126.28184 38168 ft 444 kts 207°
2026-05-05 03:35 33.12107 126.25693 38167 ft 443 kts 207°
2026-05-05 03:35 33.06337 126.23231 38168 ft 443 kts 207°
2026-05-05 03:36 33.00516 126.20750 38169 ft 442 kts 207°
2026-05-05 03:36 32.94726 126.18270 38170 ft 442 kts 207°
2026-05-05 03:37 32.88976 126.15798 38172 ft 441 kts 207°
2026-05-05 03:37 32.83189 126.13316 38171 ft 441 kts 207°
2026-05-05 03:38 32.77419 126.10846 38167 ft 440 kts 207°
2026-05-05 03:38 32.71686 126.08396 38168 ft 440 kts 207°
2026-05-05 03:39 32.65916 126.05934 38178 ft 440 kts 207°
2026-05-05 03:39 32.60154 126.03479 38176 ft 439 kts 207°
2026-05-05 03:40 32.54396 126.01029 38172 ft 439 kts 207°
2026-05-05 03:40 32.48652 125.98588 38174 ft 438 kts 207°
2026-05-05 03:41 32.42935 125.96173 38170 ft 438 kts 207°
2026-05-05 03:41 32.37196 125.93740 38170 ft 437 kts 207°
2026-05-05 03:42 32.31466 125.91313 38171 ft 436 kts 207°
2026-05-05 03:42 32.25777 125.88909 38167 ft 436 kts 207°
2026-05-05 03:43 32.20070 125.86502 38169 ft 435 kts 207°
2026-05-05 03:43 32.14353 125.84095 38168 ft 435 kts 207°
2026-05-05 03:44 32.08689 125.81713 38172 ft 434 kts 208°